[[{"header":{"parameterUnit":"m.s-1","parameterCategory":1,"la1":30.2991,"la2":30.254,"lo1":-89.0895,"lo2":-89.0444,"dy":0.0017,"dx":0.0017,"nx":28,"ny":28,"refTime":"2023-09-24T03:00:00:Z","depth":0,"parameterNumber":2,"parameterNumberName":"U-component_of_WINDS"},"data":[0,0,0,0,0,0,0,0,0,0,0,0,0,0,0,0,0,0,0,0,0,0,0,0,0,0,0,0,0,0,0,0,0,0,0,0,0,0,0,0,0,0,0,0,0,0,0,0,0,0,0,0,0,0,0,0,0,0,1.8365,1.8366,0,1.8491,1.8493,1.8494,1.855,1.855,1.855,1.855,1.868,1.8684,1.8687,0,0,0,0,0,0,0,0,0,0,0,0,0,1.8173,1.8176,1.8365,1.8366,1.8368,1.8491,1.8493,1.8495,1.855,1.855,1.855,1.855,1.8679,1.8683,1.8688,0,0,0,0,0,0,0,0,0,0,0,0,0,1.8274,1.8177,1.8364,1.841,1.8416,1.8491,1.8493,1.8495,1.855,1.855,1.855,1.8549,1.8678,1.8683,1.8688,1.8727,0,0,1.8705,1.8707,0,0,0,0,0,0,0,0,1.8268,1.8281,1.8402,1.8407,1.8414,1.8505,1.8473,1.8573,1.855,1.8499,1.855,1.8549,1.8622,1.8632,1.8656,1.8733,1.8739,1.8705,1.8709,1.8711,1.8713,0,0,0,0,0,0,0,1.8261,1.8275,1.8415,1.8404,1.8411,1.8425,1.8439,1.8492,1.8561,1.8504,1.8508,1.8522,1.8625,1.8651,1.866,1.8741,1.8705,1.871,1.8713,1.8716,1.8857,1.8858,0,0,0,0,0,0,1.8246,1.8269,1.8411,1.8419,1.8339,1.8429,1.8445,1.8476,1.856,1.8573,1.8522,1.8524,1.8642,1.8653,1.8665,1.8717,1.8711,1.8716,1.8719,1.8857,1.8858,1.8858,0,0,0,0,0,0,1.8242,1.8258,1.8406,1.8345,1.8365,1.8433,1.8467,1.8478,1.8504,1.8574,1.8587,1.8536,1.8642,1.8657,1.8711,1.8722,1.8719,1.8723,1.8856,1.8857,1.8858,1.882,0,0,0,0,0,0,1.8236,1.8256,1.8271,1.8345,1.8368,1.845,1.8468,1.8481,1.8513,1.8517,1.859,1.8602,1.8643,1.8703,1.8717,1.8729,1.8728,1.8856,1.8857,1.8858,1.8821,1.882,1.8818,0,0,0,0,0,1.8229,1.8255,1.8272,1.8288,1.8388,1.845,1.8463,1.8509,1.8514,1.853,1.8575,1.86,1.8718,1.8708,1.8724,1.8738,1.8855,1.8856,1.8857,1.8821,1.882,1.8819,0,0,0,0,0,0,1.8181,1.8266,1.8285,1.8336,1.8385,1.8459,1.8481,1.8506,1.8555,1.8557,1.8612,1.8628,1.8678,1.8714,1.8701,1.8781,1.8789,1.8793,1.8756,1.8755,1.8754,1.8745,1.8732,0,0,0,0,0,1.8176,1.8219,1.8291,1.8329,1.8353,1.8413,1.8441,1.8473,1.8526,1.8547,1.8597,1.8648,1.8697,1.8728,1.8777,1.8826,1.8844,1.8844,1.8843,1.8842,1.8845,1.8875,1.8876,1.8862,1.8862,1.8862,0,0,1.8167,1.8219,1.8242,1.8321,1.8363,1.8407,1.843,1.8475,1.8508,1.8555,1.8609,1.8647,1.8708,1.876,1.8786,1.8792,1.8853,1.8843,1.8842,1.8846,1.8876,1.8877,1.8879,1.8863,1.8862,1.8862,0,0,1.8173,1.8216,1.8253,1.8295,1.8358,1.8398,1.8406,1.8477,1.8504,1.856,1.8596,1.8637,1.8719,1.8762,1.8794,1.8817,1.8842,1.8832,1.8826,1.8854,1.8855,1.8857,1.8866,1.8868,1.8835,1.8835,1.8835,0,1.8153,1.822,1.8269,1.8312,1.8346,1.839,1.8429,1.8467,1.8543,1.8566,1.8571,1.8677,1.8721,1.8785,1.879,1.8815,1.8828,1.8824,1.8851,1.8853,1.8855,1.8864,1.8867,1.8833,1.8833,1.8833,1.8834,0,1.8194,1.824,1.8262,1.8335,1.8372,1.8412,1.8467,1.8499,1.8527,1.8566,1.8623,1.8678,1.8739,1.8756,1.8784,1.8824,1.8826,1.884,1.8849,1.8854,1.8864,1.8867,1.8831,1.8831,1.8832,1.8832,0,0,1.8172,1.8272,1.8279,1.8313,1.8387,1.8424,1.8467,1.8527,1.8553,1.8604,1.8643,1.8712,1.8727,1.8763,1.8797,1.8822,1.8838,1.8834,1.8836,1.8833,1.8886,1.8875,1.8878,1.8855,1.8856,1.8856,1.8881,0,1.8189,1.8267,1.8313,1.8373,1.8417,1.846,1.8498,1.8548,1.8586,1.8629,1.8671,1.872,1.8735,1.8758,1.8784,1.883,1.8849,1.8829,1.8891,1.8893,1.8875,1.8883,1.8871,1.8891,1.8885,1.8886,1.8886,0,1.8218,1.8268,1.8333,1.8403,1.8423,1.8456,1.8515,1.8556,1.8614,1.864,1.8681,1.8715,1.8763,1.8768,1.8836,1.8821,1.8849,1.8876,1.8878,1.8886,1.889,1.8891,1.8899,1.8902,1.8892,1.8892,1.8892,0,1.8196,1.8281,1.8331,1.8358,1.8441,1.8463,1.8499,1.8556,1.859,1.8642,1.8664,1.8721,1.8752,1.8796,1.8844,1.8843,1.8907,1.8916,1.8931,1.893,1.8942,1.8941,1.8955,1.896,1.896,1.896,1.896,0,1.821,1.8248,1.8322,1.8353,1.8397,1.845,1.8493,1.8532,1.8583,1.8622,1.8663,1.8699,1.8761,1.8805,1.8843,1.8894,1.8908,1.8931,1.894,1.8927,1.8924,1.8947,1.8947,1.8961,1.8961,1.896,1.896,0,1.8193,1.8245,1.8302,1.8376,1.8395,1.8425,1.8488,1.852,1.8561,1.861,1.8625,1.8689,1.8743,1.8796,1.8869,1.8894,1.8945,1.8958,1.8926,1.8931,1.8943,1.8941,1.8972,1.898,1.8978,1.8978,1.8978,0,1.8199,1.8229,1.8306,1.8336,1.837,1.8417,1.8452,1.8505,1.8539,1.8608,1.8632,1.8689,1.8738,1.8823,1.8876,1.8932,1.8947,1.8954,1.8956,1.8942,1.8948,1.8946,1.8949,1.8953,1.8952,1.8952,1.8952,0,1.8203,1.8227,1.8275,1.8332,1.8372,1.842,1.8469,1.8491,1.8554,1.8591,1.8647,1.8684,1.8759,1.8816,1.8879,1.8916,1.8945,1.8951,1.8958,1.8945,1.8925,1.8936,1.8923,1.895,1.895,1.8951,1.8951,1.8951,1.8198,1.8228,1.8287,1.8339,1.8382,1.8427,1.8461,1.8506,1.8553,1.8618,1.8647,1.8704,1.8762,1.8849,1.8886,1.8932,1.8939,1.8948,1.8951,1.8952,1.895,1.8917,1.8944,1.8944,1.8944,1.8944,1.8944,0,1.8205,1.8245,1.8293,1.8361,1.8402,1.8426,1.8482,1.8515,1.8564,1.8616,1.8663,1.8729,1.8784,1.8842,1.8901,1.8927,1.8941,1.894,1.8939,1.8948,1.894,1.8928,1.8927,1.8927,1.8927,1.8927,1.8927,1.8927,1.8214,1.8265,1.8296,1.8369,1.841,1.8466,1.8496,1.8538,1.858,1.8651,1.8697,1.8734,1.8789,1.8852,1.8905,1.8921,1.8941,1.8936,1.8955,1.8947,1.8948,1.8949,1.8939,1.894,1.894,1.896,1.896,1.896]},{"header":{"parameterUnit":"m.s-1","parameterCategory":1,"la1":30.2991,"la2":30.254,"lo1":-89.0895,"lo2":-89.0444,"dy":0.0017,"dx":0.0017,"nx":28,"ny":28,"refTime":"2023-09-24T03:00:00:Z","depth":0,"parameterNumber":3,"parameterNumberName":"V-component_of_WINDS"},"data":[0,0,0,0,0,0,0,0,0,0,0,0,0,0,0,0,0,0,0,0,0,0,0,0,0,0,0,0,0,0,0,0,0,0,0,0,0,0,0,0,0,0,0,0,0,0,0,0,0,0,0,0,0,0,0,0,0,0,-2.3955,-2.3954,0,-2.3932,-2.3932,-2.3931,-2.3932,-2.3932,-2.3932,-2.3933,-2.3904,-2.3903,-2.3902,0,0,0,0,0,0,0,0,0,0,0,0,0,-2.3994,-2.3993,-2.3955,-2.3954,-2.3954,-2.3932,-2.3932,-2.3931,-2.3932,-2.3932,-2.3933,-2.3933,-2.3904,-2.3903,-2.3902,0,0,0,0,0,0,0,0,0,0,0,0,0,-2.3975,-2.3993,-2.3955,-2.3952,-2.3951,-2.3932,-2.3932,-2.3931,-2.3932,-2.3932,-2.3933,-2.3933,-2.3905,-2.3903,-2.3902,-2.3882,0,0,-2.3897,-2.3896,0,0,0,0,0,0,0,0,-2.3976,-2.3973,-2.3953,-2.3952,-2.3951,-2.3935,-2.3935,-2.3915,-2.3932,-2.3939,-2.3933,-2.3933,-2.3914,-2.3911,-2.3906,-2.3881,-2.388,-2.3897,-2.3896,-2.3895,-2.3895,0,0,0,0,0,0,0,-2.3977,-2.3974,-2.3946,-2.3952,-2.3952,-2.395,-2.3948,-2.3931,-2.3924,-2.3938,-2.3938,-2.3936,-2.3914,-2.3908,-2.3905,-2.3879,-2.3897,-2.3895,-2.3894,-2.3894,-2.3837,-2.3836,0,0,0,0,0,0,-2.398,-2.3975,-2.3946,-2.3945,-2.3965,-2.3949,-2.3947,-2.394,-2.3924,-2.3922,-2.3936,-2.3936,-2.391,-2.3907,-2.3904,-2.388,-2.3895,-2.3894,-2.3893,-2.3837,-2.3837,-2.3836,0,0,0,0,0,0,-2.3981,-2.3977,-2.3947,-2.396,-2.3956,-2.3948,-2.394,-2.3939,-2.3933,-2.3922,-2.392,-2.3931,-2.391,-2.3907,-2.3888,-2.3879,-2.3893,-2.3891,-2.3838,-2.3837,-2.3836,-2.3832,0,0,0,0,0,0,-2.3982,-2.3977,-2.3971,-2.396,-2.3956,-2.3933,-2.394,-2.3938,-2.3931,-2.3932,-2.3917,-2.3915,-2.391,-2.389,-2.3887,-2.3877,-2.389,-2.3839,-2.3838,-2.3837,-2.3833,-2.3831,-2.383,0,0,0,0,0,-2.3983,-2.397,-2.3971,-2.3967,-2.3948,-2.3932,-2.393,-2.3926,-2.3931,-2.3923,-2.3916,-2.3916,-2.3881,-2.3889,-2.3884,-2.3874,-2.3839,-2.3838,-2.3837,-2.3834,-2.3831,-2.383,0,0,0,0,0,0,-2.3978,-2.3968,-2.3969,-2.3952,-2.3943,-2.3932,-2.3923,-2.3924,-2.3912,-2.3912,-2.3907,-2.3903,-2.3885,-2.3878,-2.3886,-2.3854,-2.386,-2.3858,-2.386,-2.3858,-2.3856,-2.3858,-2.3889,0,0,0,0,0,-2.3975,-2.3965,-2.3956,-2.3942,-2.3938,-2.3931,-2.3924,-2.3923,-2.3912,-2.3908,-2.3899,-2.3888,-2.3875,-2.3866,-2.3853,-2.3832,-2.3828,-2.3823,-2.3821,-2.382,-2.3818,-2.3806,-2.3803,-2.3832,-2.3832,-2.3832,0,0,-2.3968,-2.3962,-2.3955,-2.3941,-2.3934,-2.3922,-2.3928,-2.3915,-2.3906,-2.3905,-2.3888,-2.3881,-2.3868,-2.3849,-2.3839,-2.3842,-2.3809,-2.3819,-2.3818,-2.3816,-2.3804,-2.3802,-2.3799,-2.3831,-2.3831,-2.3831,0,0,-2.395,-2.3945,-2.3932,-2.3925,-2.3915,-2.3911,-2.3908,-2.3898,-2.3894,-2.3877,-2.3876,-2.3864,-2.3841,-2.3832,-2.3824,-2.3804,-2.3803,-2.3799,-2.379,-2.3779,-2.3777,-2.3775,-2.3766,-2.3764,-2.3798,-2.3797,-2.3797,0,-2.3942,-2.3927,-2.3925,-2.3913,-2.3906,-2.3907,-2.3893,-2.3886,-2.3872,-2.3866,-2.387,-2.3842,-2.3833,-2.3811,-2.3806,-2.38,-2.3795,-2.3801,-2.3777,-2.3775,-2.3773,-2.3765,-2.3762,-2.3797,-2.3797,-2.3797,-2.3797,0,-2.3918,-2.3906,-2.3897,-2.3885,-2.3877,-2.3864,-2.386,-2.3852,-2.385,-2.3846,-2.3827,-2.3817,-2.3802,-2.3797,-2.3795,-2.3775,-2.3777,-2.3779,-2.3785,-2.377,-2.3763,-2.376,-2.3797,-2.3797,-2.3797,-2.3797,0,0,-2.3894,-2.3883,-2.3879,-2.3874,-2.3863,-2.3854,-2.384,-2.3828,-2.3821,-2.3811,-2.3798,-2.378,-2.3782,-2.3773,-2.377,-2.376,-2.3743,-2.3763,-2.3763,-2.3759,-2.3719,-2.3717,-2.3714,-2.3743,-2.3743,-2.3742,-2.372,0,-2.3875,-2.3853,-2.3852,-2.3831,-2.382,-2.3822,-2.381,-2.3801,-2.3796,-2.3785,-2.3779,-2.3766,-2.377,-2.3765,-2.3755,-2.3748,-2.3735,-2.3749,-2.373,-2.3729,-2.3733,-2.371,-2.3707,-2.3687,-2.3717,-2.3717,-2.3716,0,-2.3848,-2.384,-2.3819,-2.381,-2.3806,-2.3795,-2.3783,-2.3773,-2.3763,-2.376,-2.3751,-2.375,-2.3734,-2.3742,-2.372,-2.373,-2.3722,-2.3717,-2.3716,-2.3713,-2.3721,-2.3705,-2.3681,-2.3677,-2.3712,-2.3712,-2.3713,0,-2.3833,-2.3816,-2.3801,-2.3797,-2.3786,-2.3779,-2.3774,-2.3764,-2.3757,-2.3746,-2.3741,-2.3727,-2.372,-2.3709,-2.3703,-2.3709,-2.3682,-2.3689,-2.3677,-2.3677,-2.367,-2.3671,-2.3643,-2.3667,-2.3667,-2.3667,-2.3667,0,-2.3811,-2.3797,-2.3794,-2.3785,-2.377,-2.3768,-2.3753,-2.3748,-2.374,-2.3728,-2.3728,-2.3717,-2.3711,-2.3699,-2.3694,-2.3676,-2.3673,-2.3669,-2.3668,-2.3669,-2.3669,-2.3662,-2.3663,-2.3666,-2.3666,-2.3667,-2.3667,0,-2.379,-2.3788,-2.3772,-2.3764,-2.3761,-2.3751,-2.3743,-2.3733,-2.3729,-2.3715,-2.3711,-2.3704,-2.369,-2.3684,-2.3665,-2.3662,-2.3641,-2.3641,-2.3645,-2.3645,-2.3633,-2.3634,-2.3599,-2.3594,-2.3623,-2.3623,-2.3622,0,-2.3776,-2.3766,-2.3757,-2.3751,-2.3746,-2.3735,-2.3728,-2.3726,-2.3718,-2.3706,-2.3697,-2.3684,-2.3672,-2.3649,-2.3641,-2.3627,-2.3626,-2.3615,-2.3623,-2.3624,-2.3624,-2.3625,-2.3623,-2.3613,-2.3612,-2.3612,-2.3612,0,-2.375,-2.3749,-2.374,-2.373,-2.3722,-2.3713,-2.3705,-2.3699,-2.3695,-2.3686,-2.3673,-2.3664,-2.3646,-2.3632,-2.3618,-2.3611,-2.361,-2.361,-2.3606,-2.3606,-2.3608,-2.3606,-2.364,-2.361,-2.361,-2.361,-2.361,-2.361,-2.3731,-2.3723,-2.3716,-2.3705,-2.3699,-2.3691,-2.3682,-2.3678,-2.3667,-2.3653,-2.3652,-2.3637,-2.3627,-2.3608,-2.36,-2.3587,-2.359,-2.3585,-2.3583,-2.3582,-2.3581,-2.3612,-2.3585,-2.3585,-2.3585,-2.3585,-2.3585,0,-2.3705,-2.3701,-2.3691,-2.368,-2.3672,-2.3675,-2.3666,-2.3657,-2.3645,-2.3636,-2.3626,-2.361,-2.3596,-2.3588,-2.3573,-2.3565,-2.3564,-2.3561,-2.3561,-2.3559,-2.358,-2.3584,-2.3562,-2.3562,-2.3562,-2.3562,-2.3562,-2.3562,-2.369,-2.3676,-2.3674,-2.3656,-2.3652,-2.3639,-2.3633,-2.3626,-2.3619,-2.3602,-2.3591,-2.3586,-2.3577,-2.3562,-2.3549,-2.3547,-2.3541,-2.3538,-2.3535,-2.3555,-2.3557,-2.356,-2.3563,-2.3537,-2.3537,-2.3515,-2.3515,-2.3515]}]]